Weather History for Carbondale, IL

Change the Weather History Date:

Tuesday, January 29, 2013

  Actual Average Record
Temperature  
Mean Temperature 62 °F -  
Max Temperature 70 °F 43 °F 70 °F (1917)
Min Temperature 54 °F 23 °F -3 °F (1966)
Degree Days  
Heating Degree Days 2    
Growing Degree Days 12 (Base 50)    
Moisture  
Dew Point 56 °F    
Average Humidity 80    
Maximum Humidity 94    
Minimum Humidity 61    
Precipitation  
Precipitation 1.51 in - - ()
Sea Level Pressure  
Sea Level Pressure 29.68 in    
Wind  
Wind Speed 20 mph (SSW)    
Max Wind Speed 30 mph    
Max Gust Speed 63 mph    
Visibility 7 miles    
Events Rain , Thunderstorm    
Averages and records for this station are not official NWS values.
T = Trace of Precipitation, MM = Missing Value Source: NWS Daily Summary

Daily Weather History Graph

Daily Weather History Graph

Search for Another Location

Airport:

Trip Planner

Search our weather history database for the weather conditions in past years. The results will help you decide how hot, cold, wet, or windy it might be!

Date:

Astronomy

Jan. 29, 2013 Rise Set
Actual Time 7:03 AM CST 5:17 PM CST
Civil Twilight 6:35 AM CST 5:45 PM CST
Nautical Twilight 6:03 AM CST 6:16 PM CST
Astronomical Twilight 5:32 AM CST 6:47 PM CST
Moon 8:09 PM CST (1/29) 8:03 AM CST (1/29)
Length of Visible Light 11h 10m
Length of Day
10h 14m
Waning Gibbous, 93% of the Moon is Illuminated
Jan 29
Waning Gibbous
Feb 3
Last Quarter
Feb 10
New
Feb 17
First Quarter
Feb 25
Full

Hourly Weather History & Observations

Time (CST) Temp. Dew Point Humidity Pressure Visibility Wind Dir Wind Speed Gust Speed Precip Events Conditions
12:08 AM 62.6 °F 55.4 °F 77% 29.97 in 10.0 mi SSW 18.4 mph 24.2 mph N/A   Mostly Cloudy
12:52 AM 63.0 °F 55.9 °F 78% 29.93 in 10.0 mi SSW 19.6 mph 31.1 mph N/A   Overcast
1:52 AM 64.0 °F 57.0 °F 78% 29.92 in 10.0 mi SSW 18.4 mph 29.9 mph N/A   Overcast
2:52 AM 63.0 °F 57.0 °F 81% 29.91 in 10.0 mi SSW 13.8 mph 27.6 mph N/A   Overcast
3:52 AM 63.0 °F 57.0 °F 81% 29.91 in 10.0 mi SSW 19.6 mph 29.9 mph N/A   Overcast
4:48 AM 62.6 °F 55.4 °F 77% 29.89 in 10.0 mi SSW 21.9 mph 32.2 mph N/A   Overcast
4:52 AM 62.1 °F 55.9 °F 80% 29.88 in 10.0 mi South 21.9 mph 29.9 mph N/A   Overcast
5:52 AM 62.1 °F 57.0 °F 84% 29.88 in 10.0 mi SSW 17.3 mph 25.3 mph N/A   Overcast
7:52 AM 63.0 °F 57.9 °F 84% 29.85 in 9.0 mi SSW 17.3 mph 31.1 mph 0.00 in   Overcast
7:59 AM 64.4 °F 57.2 °F 77% 29.86 in 9.0 mi SSW 26.5 mph 35.7 mph N/A   Overcast
8:52 AM 64.0 °F 57.9 °F 80% 29.86 in 10.0 mi SSW 24.2 mph 32.2 mph N/A   Overcast
9:52 AM 63.0 °F 57.9 °F 84% 29.84 in 5.0 mi South 24.2 mph 34.5 mph N/A Rain , Thunderstorm Light Thunderstorms and Rain
10:02 AM 62.6 °F 59.0 °F 88% 29.84 in 2.0 mi South 19.6 mph 34.5 mph 0.07 in Rain , Thunderstorm Thunderstorms and Rain
10:11 AM 62.6 °F 57.2 °F 82% 29.84 in 4.0 mi South 23.0 mph 29.9 mph 0.08 in Rain , Thunderstorm Light Thunderstorms and Rain
10:37 AM 62.6 °F 59.0 °F 88% 29.83 in 6.0 mi South 24.2 mph 29.9 mph 0.12 in Rain Light Rain
10:52 AM 63.0 °F 57.9 °F 84% 29.81 in 8.0 mi South 21.9 mph 28.8 mph 0.12 in   Overcast
11:52 AM 64.9 °F 59.0 °F 81% 29.77 in 10.0 mi South 21.9 mph 32.2 mph 0.00 in Rain Light Rain
12:07 PM 66.2 °F 57.2 °F 73% 29.75 in 10.0 mi South 27.6 mph 38.0 mph 0.00 in   Mostly Cloudy
12:48 PM 68.0 °F 59.0 °F 73% 29.72 in 10.0 mi South 20.7 mph 36.8 mph 0.00 in   Overcast
12:52 PM 68.0 °F 57.9 °F 70% 29.71 in 10.0 mi South 20.7 mph 28.8 mph 0.00 in   Overcast
12:59 PM 68.0 °F 57.2 °F 68% 29.71 in 10.0 mi South 21.9 mph 32.2 mph N/A   Mostly Cloudy
1:52 PM 69.1 °F 57.0 °F 65% 29.67 in 10.0 mi South 29.9 mph 36.8 mph N/A   Mostly Cloudy
2:52 PM 70.0 °F 57.0 °F 63% 29.63 in 10.0 mi South 23.0 mph 32.2 mph N/A   Mostly Cloudy
3:52 PM 70.0 °F 55.9 °F 61% 29.62 in 10.0 mi South 21.9 mph 40.3 mph N/A   Mostly Cloudy
4:52 PM 69.1 °F 55.0 °F 61% 29.59 in 10.0 mi South 20.7 mph 28.8 mph N/A   Mostly Cloudy
5:52 PM 66.9 °F 57.9 °F 73% 29.56 in 10.0 mi South 17.3 mph 29.9 mph 0.00 in Rain Light Rain
6:52 PM 64.9 °F 59.0 °F 81% 29.52 in 9.0 mi South 18.4 mph 28.8 mph 0.05 in Rain Light Rain
7:52 PM 66.0 °F 59.0 °F 78% 29.47 in 10.0 mi South 24.2 mph 32.2 mph 0.01 in Rain Light Rain
8:52 PM 68.0 °F 59.0 °F 73% 29.39 in 10.0 mi South 24.2 mph 35.7 mph 0.00 in   Overcast
9:20 PM 69.8 °F 59.0 °F 68% 29.38 in 10.0 mi South 27.6 mph 43.7 mph 0.01 in Rain , Thunderstorm Light Rain
9:31 PM 59.0 °F 53.6 °F 82% 29.50 in 2.5 mi West 16.1 mph 63.3 mph 0.11 in Rain , Thunderstorm Heavy Thunderstorms and Rain
9:34 PM 57.2 °F 53.6 °F 88% 29.52 in 1.5 mi SW 18.4 mph 63.3 mph 0.23 in Rain , Thunderstorm Heavy Thunderstorms and Rain
9:37 PM 55.4 °F 53.6 °F 94% 29.53 in 0.8 mi West 20.7 mph 40.3 mph 0.40 in Rain , Thunderstorm Heavy Thunderstorms and Rain
9:44 PM 55.4 °F 53.6 °F 94% 29.52 in 0.8 mi WNW 12.7 mph 29.9 mph 0.63 in Rain , Thunderstorm Heavy Thunderstorms and Rain
9:47 PM 55.4 °F 53.6 °F 94% 29.51 in 1.0 mi WNW 19.6 mph 26.5 mph 0.67 in Rain , Thunderstorm Heavy Thunderstorms and Rain
9:52 PM 55.9 °F 53.1 °F 90% 29.51 in 1.5 mi NW 20.7 mph 27.6 mph 0.74 in Rain , Thunderstorm Heavy Thunderstorms and Rain
9:57 PM 55.4 °F 53.6 °F 94% 29.51 in 2.0 mi NNW 24.2 mph 33.4 mph 0.06 in Rain , Thunderstorm Heavy Thunderstorms and Rain
10:05 PM 55.4 °F 51.8 °F 88% 29.52 in 3.0 mi NW 18.4 mph 33.4 mph 0.10 in Rain , Thunderstorm Heavy Thunderstorms and Rain
10:12 PM 55.4 °F 51.8 °F 88% 29.53 in 4.0 mi NW 16.1 mph 26.5 mph 0.12 in Rain , Thunderstorm Thunderstorms and Rain
10:25 PM 55.4 °F 51.8 °F 88% 29.55 in 5.0 mi NW 12.7 mph 21.9 mph 0.16 in Rain , Thunderstorm Rain
10:45 PM 55.4 °F 51.8 °F 88% 29.53 in 4.0 mi NNW 10.4 mph - 0.22 in Rain Rain
10:52 PM 55.0 °F 52.0 °F 89% 29.53 in 5.0 mi North 4.6 mph 16.1 mph 0.25 in Rain Heavy Rain
11:52 PM 54.0 °F 51.1 °F 90% 29.55 in 3.0 mi Calm Calm - 0.34 in Rain Rain